Simultaneous Nadir Overpasses (SNOs) Predictions

Prediction of SNOs between AQUA and NPP Satellite Orbit:

Table of predicted SNOs for the next 14.0 days since TLE Epoch: 9/25/2020
Index Date (AQUA) Time (AQUA) Lat,Lon (AQUA) SZA (AQUA ) Date (NPP) Time (NPP) Lat,Lon (NPP) SZA (NPP ) Distance(km) Time Diff (sec)
1 09/26/2020 21:48:56 75.48, 90.25 98.96 09/26/2020 21:48:08 75.48, 90.33 98.98 2.53 48
2 09/26/2020 22:38:06 -76.36, -99.43 82.01 09/26/2020 22:38:35 -76.36, -99.44 82.04 0.13 29
3 09/29/2020 14:05:21 75.64,-153.39 99.75 09/29/2020 14:04:59 75.64,-153.41 99.77 0.64 22
4 09/29/2020 14:54:24 -76.86, 18.16 81.61 09/29/2020 14:55:18 -76.87, 18.25 81.68 2.56 54
5 10/02/2020 05:32:47 -74.51, 151.84 78.09 10/02/2020 05:31:33 -74.52, 151.80 78.02 1.65 74
6 10/02/2020 06:21:37 76.25, -35.68 100.05 10/02/2020 06:21:40 76.26, -35.59 100.02 2.57 3
7 10/02/2020 07:06:25 -80.04,-137.35 95.06 10/02/2020 07:07:38 -79.38,-139.89 95.44 89.13 73
8 10/04/2020 21:48:55 -75.53, -89.61 78.22 10/04/2020 21:48:06 -75.54, -89.52 78.20 2.75 49
9 10/04/2020 22:38:01 76.45, 80.86 100.79 10/04/2020 22:38:30 76.45, 80.88 100.76 0.45 29
10 10/07/2020 14:05:18 -75.73, 26.86 77.48 10/07/2020 14:04:55 -75.74, 26.88 77.47 0.82 23
